Fort Sill, OK

6:42 AM CST on February 19, 2017 (GMT -0600)
Post Army Air Field

Weather History for KFSI - March, 2013

Change the Weather History Date:

Thursday, March 7, 2013

  Actual Average Record
Temperature  
Mean Temperature 54 °F -  
Max Temperature 71 °F 64 °F 84 °F (2006)
Min Temperature 38 °F 39 °F 20 °F (1967)
Degree Days  
Heating Degree Days 10    
Growing Degree Days 4 (Base 50)    
Moisture  
Dew Point 27 °F    
Average Humidity 37    
Maximum Humidity 54    
Minimum Humidity 20    
Precipitation  
Precipitation 0.00 in - - ()
Sea Level Pressure  
Sea Level Pressure 30.07 in    
Wind  
Wind Speed 13 mph (SSE)    
Max Wind Speed 23 mph    
Max Gust Speed 29 mph    
Visibility 10 miles    
Events      
Averages and records for this station are not official NWS values.
T = Trace of Precipitation, MM = Missing Value Source: NWS Daily Summary

Daily Weather History Graph

Daily Weather History Graph

Search for Another Location

Airport or City:

Trip Planner

Search our weather history database for the weather conditions in past years. The results will help you decide how hot, cold, wet, or windy it might be!

Date:

Astronomy

Mar. 07, 2013 Rise Set
Actual Time 6:54 AM CST 6:34 PM CST
Civil Twilight 6:29 AM CST 7:00 PM CST
Nautical Twilight 6:00 AM CST 7:29 PM CST
Astronomical Twilight 5:31 AM CST 7:58 PM CST
Moon 3:46 AM CST (3/7) 2:32 PM CST (3/7)
Length of Visible Light 12h 30m
Length of Day
11h 40m
Waning Crescent, 20% of the Moon is Illuminated
Mar 7
Waning Crescent
Mar 11
New
Mar 19
First Quarter
Mar 27
Full
Apr 2
Last Quarter

Hourly Weather History & Observations

Time (CST) Temp. Windchill Dew Point Humidity Pressure Visibility Wind Dir Wind Speed Gust Speed Precip Events Conditions
12:58 AM 39.7 °F 34.9 °F 23.2 °F 52% 30.15 in 10.0 mi SSE 6.9 mph - N/A   Clear
1:58 AM 39.7 °F 33.7 °F 23.2 °F 52% 30.14 in 10.0 mi SSE 9.2 mph - N/A   Clear
2:58 AM 39.7 °F 33.2 °F 23.5 °F 52% 30.12 in 10.0 mi SSE 10.4 mph - N/A   Clear
3:58 AM 40.1 °F 32.7 °F 23.5 °F 52% 30.10 in 10.0 mi SSE 12.7 mph - N/A   Clear
4:58 AM 40.5 °F 33.2 °F 23.0 °F 50% 30.10 in 10.0 mi SSE 12.7 mph - N/A   Clear
5:58 AM 39.9 °F 33.4 °F 23.2 °F 51% 30.10 in 10.0 mi South 10.4 mph - N/A   Clear
6:58 AM 38.8 °F 32.6 °F 23.5 °F 54% 30.11 in 10.0 mi SSE 9.2 mph - N/A   Clear
7:58 AM 41.7 °F 35.2 °F 23.7 °F 49% 30.14 in 10.0 mi SSE 11.5 mph - N/A   Clear
8:58 AM 49.3 °F - 24.1 °F 37% 30.13 in 10.0 mi South 16.1 mph 23.0 mph N/A   Clear
9:58 AM 55.2 °F - 26.2 °F 33% 30.13 in 10.0 mi South 18.4 mph 23.0 mph N/A   Clear
10:58 AM 60.6 °F - 26.2 °F 27% 30.12 in 10.0 mi South 23.0 mph 28.8 mph N/A   Clear
11:58 AM 63.3 °F - 26.2 °F 25% 30.10 in 10.0 mi South 20.7 mph 28.8 mph N/A   Clear
12:58 PM 67.1 °F - 27.7 °F 23% 30.06 in 10.0 mi South 23.0 mph 27.6 mph N/A   Clear
1:58 PM 69.4 °F - 26.6 °F 20% 30.04 in 10.0 mi South 18.4 mph - N/A   Clear
2:58 PM 70.7 °F - 27.9 °F 20% 30.02 in 10.0 mi South 17.3 mph 24.2 mph N/A   Clear
3:58 PM 71.2 °F - 28.8 °F 21% 30.01 in 10.0 mi South 16.1 mph - N/A   Clear
4:58 PM 70.7 °F - 28.9 °F 21% 29.99 in 10.0 mi South 17.3 mph 24.2 mph N/A   Clear
5:58 PM 67.5 °F - 30.7 °F 25% 30.00 in 10.0 mi SSE 16.1 mph - N/A   Clear
6:58 PM 62.2 °F - 31.5 °F 31% 30.01 in 10.0 mi SSE 11.5 mph - N/A   Clear
7:58 PM 59.4 °F - 28.6 °F 31% 30.02 in 10.0 mi SSE 12.7 mph - N/A   Partly Cloudy
8:58 PM 58.6 °F - 27.7 °F 31% 30.04 in 10.0 mi SSE 11.5 mph - N/A   Clear
9:58 PM 57.9 °F - 29.7 °F 34% 30.04 in 10.0 mi SSE 17.3 mph - N/A   Mostly Cloudy
10:58 PM 56.3 °F - 33.8 °F 43% 30.04 in 10.0 mi SSE 13.8 mph - N/A   Mostly Cloudy
11:58 PM 54.9 °F - 34.7 °F 47% 30.04 in 10.0 mi SSE 11.5 mph - N/A   Overcast